EW6511 Weather Reports


time (UTC)temp
F
wind
direction
speed
knots
gust
knots
rain 1hr
in
rain 24hr
in
rain mn
in
humidity
%
barometer
mb
20260507202411 51 59 3.5 7.8 0.00 0.05 0.05 67 1016.2
20260507201412 51 46 3.5 5.2 0.00 0.05 0.05 67 1016.2
20260507200412 51 64 3.5 5.2 0.00 0.05 0.05 67 1016.2
20260507195410 51 36 3.5 4.3 0.00 0.05 0.05 67 1016.2
20260507194411 52 62 3.5 4.3 0.00 0.05 0.05 66 1016.0
20260507193409 52 59 2.6 5.2 0.00 0.05 0.05 66 1015.8
20260507192411 53 62 3.5 4.3 0.00 0.05 0.05 66 1015.7
20260507191407 53 63 3.5 4.3 0.00 0.05 0.05 65 1015.8
20260507185410 54 72 2.6 4.3 0.00 0.05 0.05 64 1015.6
20260507184408 55 59 2.6 4.3 0.00 0.05 0.05 64 1015.5
20260507183410 55 21 2.6 5.2 0.00 0.05 0.05 63 1015.5
20260507182409 55 43 2.6 4.3 0.00 0.05 0.05 63 1015.5
20260507180407 56 37 3.5 5.2 0.00 0.05 0.05 59 1015.4
20260507175403 56 18 4.3 7.0 0.00 0.05 0.05 59 1015.3
20260507173404 57 13 4.3 7.8 0.00 0.05 0.05 58 1015.2
20260507171403 58 355 3.5 7.8 0.00 0.05 0.05 54 1015.2
20260507165403 60 355 3.5 7.8 0.00 0.05 0.05 50 1015.0
20260507164402 60 293 2.6 7.0 0.00 0.05 0.05 48 1014.9
20260507163402 59 298 4.3 8.7 0.00 0.05 0.05 49 1015.1
20260507162403 60 310 2.6 8.7 0.00 0.05 0.05 49 1015.0
20260507161402 60 293 3.5 7.0 0.00 0.05 0.05 50 1015.0
20260507155402 60 313 6.1 11.3 0.00 0.05 0.05 46 1015.0
20260507153401 59 31 4.3 7.8 0.00 0.05 0.05 52 1015.1
20260507151355 60 30 5.2 8.7 0.00 0.05 0.05 50 1015.0
20260507150356 60 335 4.3 7.8 0.00 0.05 0.05 50 1015.1
20260507144351 59 32 1.7 4.3 0.00 0.05 0.05 56 1015.3
20260507135351 59 41 2.6 5.2 0.00 0.05 0.05 57 1015.3
20260507134352 58 331 7.0 10.4 0.00 0.05 0.05 58 1015.4
20260507131351 59 346 6.1 10.4 0.00 0.05 0.05 56 1015.5
20260507130351 60 265 6.1 9.6 0.00 0.05 0.05 56 1015.5
20260507125352 60 299 7.0 12.2 0.00 0.05 0.05 61 1015.4
20260507124352 60 300 4.3 8.7 0.00 0.05 0.05 61 1015.5
20260507123351 59 258 4.3 7.8 0.00 0.05 0.05 54 1015.5
20260507122349 60 308 7.0 11.3 0.00 0.05 0.05 59 1015.5
20260507121347 60 310 4.3 12.2 0.00 0.05 0.05 60 1015.5
20260507120346 58 355 2.6 7.0 0.00 0.05 0.05 64 1015.5
20260507115347 58 348 7.0 12.2 0.00 0.05 0.05 61 1015.6
20260507114347 58 325 4.3 9.6 0.00 0.05 0.05 65 1015.6
20260507113347 58 326 6.1 11.3 0.00 0.05 0.05 61 1015.6
20260507112345 58 309 5.2 8.7 0.00 0.05 0.05 61 1015.6
20260507111353 58 315 6.1 13.0 0.00 0.05 0.05 65 1015.6
20260507110345 58 218 4.3 8.7 0.00 0.06 0.05 64 1015.7
20260507105345 56 288 2.6 8.7 0.00 0.07 0.05 65 1015.7
20260507104347 56 313 2.6 6.1 0.00 0.07 0.05 67 1015.8
20260507103345 56 202 3.5 7.8 0.00 0.08 0.05 69 1016.0
20260507102346 56 229 4.3 10.4 0.00 0.09 0.05 65 1016.0
20260507101340 56 260 3.5 8.7 0.00 0.11 0.05 70 1016.0
20260507094341 55 277 1.7 7.0 0.00 0.20 0.05 71 1016.1
20260507093340 54 270 2.6 5.2 0.00 0.22 0.05 73 1016.0
20260507092340 53 282 3.5 7.0 0.00 0.29 0.05 74 1016.1
20260507091342 53 247 1.7 7.0 0.00 0.29 0.05 75 1016.1
20260507090340 52 271 2.6 7.0 0.00 0.29 0.05 74 1016.2
20260507085340 51 313 3.5 7.0 0.00 0.29 0.05 76 1016.1
20260507083334 50 303 3.5 7.0 0.00 0.31 0.05 78 1016.0
20260507082334 50 255 4.3 7.0 0.00 0.31 0.05 78 1016.1
20260507081343 50 275 3.5 6.1 0.00 0.31 0.05 79 1016.1
20260507080332 50 288 4.3 7.0 0.00 0.32 0.05 79 1016.1
20260507075334 50 280 3.5 7.0 0.00 0.32 0.05 80 1016.1
20260507074333 49 273 5.2 7.8 0.00 0.32 0.05 79 1016.0
20260507073333 49 279 2.6 7.0 0.00 0.32 0.05 80 1016.0
20260507072335 49 169 2.6 4.3 0.00 0.32 0.05 81 1015.8
20260507071327 48 167 2.6 5.2 0.00 0.32 0.05 81 1015.8
20260507070327 48 169 0.9 3.5 0.00 0.32 0.05 83 1015.7
20260507065327 47 169 0.0 0.9 0.00 0.32 0.05 84 1015.7
20260507064327 47 169 0.0 2.6 0.00 0.32 0.05 84 1015.6
20260507063327 47 169 0.0 1.7 0.00 0.32 0.05 84 1015.6
20260507062328 47 200 0.0 0.9 0.00 0.32 0.05 84 1015.6
20260507061326 47 204 0.0 0.0 0.00 0.32 0.05 84 1015.4
20260507060324 46 205 0.0 0.9 0.00 0.32 0.05 85 1015.4
20260507054324 46 206 0.0 0.0 0.00 0.32 0.05 84 1015.3
20260507053320 46 206 0.0 0.0 0.00 0.32 0.05 84 1015.2
20260507052322 45 206 0.0 0.0 0.00 0.32 0.05 84 1015.0
20260507051322 45 206 0.0 0.0 0.00 0.32 0.05 84 1014.9
20260507050318 45 206 0.0 1.7 0.00 0.32 0.05 84 1014.9
20260507045320 45 206 0.9 1.7 0.00 0.32 0.05 84 1014.7
20260507044319 45 206 0.9 1.7 0.00 0.32 0.05 84 1014.7
20260507043320 44 206 0.0 0.9 0.00 0.32 0.05 84 1014.6
20260507042320 44 206 0.0 0.9 0.00 0.32 0.05 84 1014.5
20260507040316 45 159 0.0 0.0 0.00 0.32 0.05 84 1014.4
20260507035317 44 159 0.0 0.0 0.00 0.32 0.05 84 1014.4
20260507034317 44 160 0.0 0.9 0.00 0.32 0.05 84 1014.4
20260507033318 45 216 0.0 0.0 0.00 0.32 0.05 84 1014.2
20260507032317 45 216 0.0 1.7 0.00 0.32 0.05 83 1014.2
20260507031318 45 216 0.9 1.7 0.00 0.32 0.05 84 1014.2
20260507024316 45 216 0.0 0.0 0.00 0.32 0.05 84 1014.0
20260507023316 45 216 0.0 0.0 0.00 0.32 0.05 83 1014.1
20260507022315 45 216 0.9 2.6 0.00 0.32 0.05 83 1014.1
20260507021314 45 216 0.9 2.6 0.00 0.32 0.05 83 1013.9
20260507020316 45 217 0.0 1.7 0.00 0.32 0.05 83 1013.9
20260507015315 45 217 0.0 0.0 0.00 0.32 0.05 83 1013.9
20260507014310 46 217 0.0 1.7 0.00 0.32 0.05 83 1013.9
20260507013309 46 217 0.0 1.7 0.01 0.32 0.05 83 1013.9
20260507012308 46 217 0.0 1.7 0.01 0.32 0.05 83 1013.9
20260507011309 46 217 0.9 1.7 0.01 0.32 0.05 82 1013.8
20260507010309 46 217 0.9 1.7 0.02 0.32 0.05 82 1013.8
20260507005310 46 217 0.9 2.6 0.02 0.32 0.05 82 1013.8
20260507004310 46 217 1.7 3.5 0.02 0.32 0.05 82 1013.8
20260507003306 46 220 1.7 3.5 0.02 0.31 0.04 82 1013.9
20260507002306 46 221 1.7 4.3 0.02 0.31 0.04 82 1013.9
20260507000259 46 163 0.9 4.3 0.02 0.31 0.03 82 1013.8
20260506235258 46 163 0.9 3.5 0.02 0.31 0.03 82 1013.7
20260506234259 46 163 1.7 4.3 0.03 0.31 0.03 82 1013.7
20260506233300 46 163 1.7 3.5 0.02 0.30 0.02 82 1013.9
20260506232258 46 162 0.0 3.5 0.02 0.29 0.02 81 1013.9
20260506231314 46 162 1.7 4.3 0.02 0.29 0.02 81 1013.9
20260506230258 46 161 2.6 5.2 0.01 0.28 0.01 81 1013.8
20260506225259 46 219 1.7 4.3 0.01 0.28 0.01 80 1013.9
20260506224253 46 174 1.7 6.1 0.00 0.28 0.00 80 1013.8
20260506223252 46 212 1.7 4.3 0.00 0.28 0.00 80 1013.9
20260506222252 46 230 1.7 4.3 0.00 0.28 0.00 80 1013.7
20260506220254 46 199 1.7 3.5 0.00 0.28 0.00 80 1013.6
20260506215251 46 183 1.7 3.5 0.00 0.28 0.28 80 1013.6
20260506214251 46 240 0.9 1.7 0.00 0.28 0.28 79 1013.5
20260506213251 46 248 2.6 4.3 0.00 0.28 0.28 79 1013.5
20260506212252 46 239 0.9 3.5 0.00 0.28 0.28 79 1013.4
20260506210243 46 214 0.0 0.0 0.00 0.28 0.28 78 1013.2
20260506205245 46 214 0.0 0.0 0.00 0.28 0.28 78 1013.1
20260506204245 46 214 0.0 0.0 0.00 0.28 0.28 78 1013.0